Regional Weather Roundup
Issued by NWS

Home | Current Version | Previous Version | Graphics & Text | Print | Product List | Glossary On
Versions: 1 2 3 4 5 6 7 8 9 10 11 12 13 14 15 16 17 18 19 20 21 22 23 24 25 26 27 28 29 30 31 32 33 34 35 36 37 38 39 40 41 42 43 44 45 46 47 48 49 50
000
ASUS43 KIND 220909
RWRIN

WEATHER ROUNDUP FOR INDIANA
NATIONAL WEATHER SERVICE INDIANAPOLIS IN
400 AM EST SAT NOV 22 2014

NOTE: "FAIR" INDICATES FEW OR NO CLOUDS BELOW 12,000 FEET WITH NO
SIGNIFICANT WEATHER AND/OR OBSTRUCTIONS TO VISIBILITY.

* - STATION DOES NOT REPORT WEATHER SUCH AS PRECIPITATION OR FOG.

+ - STATION NOT QUALITY CONTROLLED BY THE NATIONAL WEATHER SERVICE.
    USE DATA WITH CAUTION...ESPECIALLY DEWPOINT AND RELATIVE
    HUMIDITY OBSERVATIONS.

INZ001>003-010>013-019-020-221000-
NORTHWEST INDIANA

CITY           SKY/WX    TMP DP  RH WIND       PRES   REMARKS
GARY /AIRPORT/ CLOUDY    35  31  87 S9        30.14F WCI  27
KNOX *+        CLOUDY    32  28  85 S9        30.16F WCI  24
LA PORTE +     DRIZZLE   34  29  84 S10       30.15F WCI  26
MICHIGAN CITY+ RAIN      32  28  86 S16       30.14F WCI  21
MONTICELLO +   MIX PCPN  33  29  85 S8        30.17F WCI  26
RENSSELAER +   MIX PCPN  32  32 100 S6        30.17F WCI  26
VALPARAISO     FRZ RAIN  32  29  88 S10       30.15F WCI  24

$$

LMZ046-743>745-221000-
SOUTHERN LAKE MICHIGAN

STATION/POSITION TIME  TEMP WIND        PRES
                       AIR  DIR/SP/G
                 (UTC) (F)  (DEG/KT/KT) (MB)
MICHIGAN CITY    0900   34  170/ 17/ 22   N/A

$$

INZ004-005-014>016-021>024-221000-
NORTH CENTRAL INDIANA

CITY           SKY/WX    TMP DP  RH WIND       PRES   REMARKS
GOSHEN         CLOUDY    34  21  59 S16       30.17F WCI  24
LOGANSPORT +   MIX PCPN  32  28  86 S10       30.19F WCI  24
PERU/GRISSOM   FRZ RAIN  32  32 100 S12       30.18F WCI  23
ROCHESTER +    LGT SNOW  34  32  93 S8        30.19F WCI  27
SOUTH BEND     LGT RAIN  34  24  67 S15       30.16F WCI  24
WARSAW +       RAIN      32  27  80 S6        30.19F WCI  26

$$

INZ006>009-017-018-025>027-221000-
NORTHEAST INDIANA

CITY           SKY/WX    TMP DP  RH WIND       PRES   REMARKS
ANGOLA *+      CLOUDY    27  18  69 S6        30.17F WCI  20
FORT WAYNE     CLOUDY    32  21  64 S12       30.22F WCI  23
HUNTINGTON +   RAIN      32  25  73 S8        30.21F WCI  25

$$

INZ028-029-035-036-043>045-051>053-221000-
WEST CENTRAL INDIANA

CITY           SKY/WX    TMP DP  RH WIND       PRES   REMARKS
GREENCASTLE +  LGT RAIN  36  32  87 S8        30.23F
LAFAYETTE      LGT RAIN  33  30  88 S5        30.19F FOG     WCI  29
TERRE HAUTE    CLOUDY    37  29  72 S8        30.23F

$$

INZ030>032-037>040-046>048-054>057-064-065-221000-
CENTRAL INDIANA

CITY           SKY/WX    TMP DP  RH WIND       PRES   REMARKS
CP ATTERBURY + MIX PCPN  34  27  75 S7        30.27F WCI  28
FRANKFORT +    LGT RAIN  34  31  88 SE8       30.21F WCI  27
GREENWOOD *+   CLOUDY    32  23  69 SE7       30.26  WCI  26
INDIANAPOLIS   CLOUDY    33  25  72 SE6       30.23F WCI  28
-EAGLE CREEK   CLOUDY    33  24  69 SE8       30.23F WCI  26
KOKOMO *+      CLOUDY    34  25  69 S20       30.21F WCI  22
MARION +       CLOUDY    33  23  66 S21       30.23F HAZE    WCI  21
MT COMFORT *+  MOCLDY    32  19  59 S8        30.25F WCI  25
SHELBYVILLE    CLOUDY    36  21  54 S10       30.26F
ZIONSVILLE +   DRIZZLE   34  24  68 S13G20    30.23F WCI  25

$$

INZ033-034-041-042-049-050-058-059-221000-
EAST CENTRAL INDIANA

CITY           SKY/WX    TMP DP  RH WIND       PRES   REMARKS
MUNCIE         CLOUDY    36  19  50 S13G21    30.24F

$$

INZ060-061-067>069-081>083-085>088-221000-
SOUTHWEST INDIANA

CITY           SKY/WX    TMP DP  RH WIND       PRES   REMARKS
EVANSVILLE     PTCLDY    40  30  67 SE5       30.28F
HUNTINGBURG *+ MOCLDY    39  28  65 SE7       30.29F
WASHINGTON +   CLOUDY    37  31  78 S8        30.25F

$$

INZ062-063-066-070>080-084-089>092-221000-
SOUTH CENTRAL AND SOUTHEAST INDIANA

CITY           SKY/WX    TMP DP  RH WIND       PRES   REMARKS
BLOOMINGTON    LGT RAIN  34  29  82 SE10      30.25F WCI  26
NORTH VERNON + RAIN      34  27  75 S3        30.30

$$




USA.gov is the U.S. government's official web portal to all federal, state and local government web resources and services.